Regional Weather Roundup
Issued by NWS

Home | Current Version | Previous Version | Graphics & Text | Print | Product List | Glossary On
Versions: 1 2 3 4 5 6 7 8 9 10 11 12 13 14 15 16 17 18 19 20 21 22 23 24 25 26 27
000
ASUS45 KTFX 200410
RWRMT
MONTANA REGIONAL WEATHER ROUNDUP
NATIONAL WEATHER SERVICE GREAT FALLS MT
900 PM MST THU JAN 19 2017

NOTE: "FAIR" INDICATES FEW OR NO CLOUDS BELOW 12000 FEET WITH NO
SIGNIFICANT WEATHER AND/OR OBSTRUCTIONS TO VISIBILITY.

MTZ001>007-043-200500-
WEST OF THE DIVIDE

CITY           SKY/WX    TMP DP  RH WIND       PRES   REMARKS
KALISPELL      FOG       28  28 100 CALM      29.55S VSB 1/4
MISSOULA       FOG       32  32 100 CALM      29.60S VSB 1/4
BUTTE          CLOUDY    24  19  81 S5        29.54S
MULLAN PASS    CLOUDY    27  23  85 W5        29.52F
ANACONDA         N/A     32  30  93 W5        29.55S
DEER LODGE       N/A     34  34 100 SW3       29.57S
EUREKA           N/A     39  28  65 SE8       29.55S
HAMILTON         N/A     34  34 100 CALM      29.58F
PLAINS           N/A     24  19  81 CALM      29.63R VSB 0
RONAN            N/A     35  31  86 W2        29.64S
$$

MTZ008-052>055-200500-
SOUTHWEST MONTANA

CITY           SKY/WX    TMP DP  RH WIND       PRES   REMARKS
BOZEMAN        CLOUDY    30  27  88 S3        29.54S
DILLON         CLOUDY    33  19  56 S6        29.56S WCI  28
W YELLOWSTONE  CLOUDY    27  25  93 SW8       29.61S FOG     WCI  18
ENNIS          CLOUDY    32  25  74 S15       29.62R WCI  22
TWIN BRIDGES     N/A     30  21  69 E7        29.61S WCI  23
$$

MTZ009-010-012-014-046-048-049-054-200500-
EAST SLOPES AND CENTRAL MONTANA

CITY           SKY/WX    TMP DP  RH WIND       PRES   REMARKS
CUT BANK       CLOUDY    34  25  69 SW8       29.45S WCI  27
GREAT FALLS    CLOUDY    37  28  70 SW10      29.48R WCI  30
MALMSTROM AFB  CLOUDY    39  30  70 SW12      29.48S WCI  32
HELENA         CLOUDY    37  28  70 W6        29.53R
AUGUSTA        MOCLDY    33  24  71 W6        29.47S WCI  27
BOWMANS CRNR   MOCLDY    35  29  76 SW15      29.47R WCI  26
CHOTEAU          N/A     37  25  60 SW6       29.49R
CONRAD           N/A     37  32  82 W2        29.52F
POWER          MOCLDY    33  28  84 CALM      29.46S
RAYNESFORD     CLOUDY    42  27  55 SW10      29.47F
ULM            MOCLDY    37  30  77 MISG      29.49R
$$

MTZ011-013-016-021-045-047-050-051-200500-
NORTH CENTRAL MONTANA

CITY           SKY/WX    TMP DP  RH WIND       PRES   REMARKS
HAVRE          CLOUDY    36  32  85 SW13      29.44F WCI  27
LEWISTOWN      CLOUDY    37  32  82 S6        29.47F
CHINOOK          N/A     37  32  81 CALM      29.44S
DENTON         MOCLDY    37  30  75 SW14      29.43F WCI  29
FORT BENTON      N/A     39  30  70 MISG      29.48S
GEYSER         MOCLDY    36  28  74 SW6       29.46F WCI  31
GRASS RANGE    LGT RAIN  40  35  84 S10       29.45S
JUDITH GAP     CLOUDY    37  29  73 W15       29.49S WCI  27
ROY            MOCLDY    44  32  62 MISG      29.45F
STANFORD       MOCLDY    38  29  67 SW13      29.47F WCI  31
WINIFRED       CLOUDY    40  32  72 W8        29.45F
$$

MTZ017>020-022>027-061-062-200500-
NORTHEAST MONTANA

CITY           SKY/WX    TMP DP  RH WIND       PRES   REMARKS
GLASGOW        CLOUDY    27  22  81 S6        29.44F WCI  20
JORDAN           N/A     34  30  85 W6        29.45F WCI  29
SIDNEY         CLOUDY    18  16  92 S6        29.45R WCI  10
WOLF POINT     CLOUDY    20  16  84 CALM      29.44F
PLENTYWOOD       N/A     25  21  86 NE3       29.41F
POPLAR           N/A     19  16  86 W5        29.45S
SCOBEY           N/A     23  15  71 CALM      29.43F
$$

MTZ028>42-056>058-200500-
SOUTHCENTRAL AND SOUTHEAST MONTANA

CITY           SKY/WX    TMP DP  RH WIND       PRES   REMARKS
BAKER          CLOUDY    21  16  81 W3        29.45S
BILLINGS       CLOUDY    37  24  59 SW14      29.53R WCI  28
LIVINGSTON     CLOUDY    38  26  62 SW17G25   29.51F WCI  28
MILES CITY     CLOUDY    24  17  74 S6        29.47S WCI  17
BIG TIMBER     CLOUDY    37  28  70 W14       29.54S WCI  29
EKALAKA          N/A     36  19  50 SW10      29.48  WCI  28
FORSYTH          N/A     30  25  80 SW6       29.48R WCI  24
HARLOWTON      LGT RAIN  36  30  77 W9        29.50F WCI  29
LAUREL           N/A     34  22  61 SW3       29.56S
$$

REGIONAL REPORTS...DAKOTAS

CITY           SKY/WX    TMP DP  RH WIND       PRES   REMARKS
WILLISTON      CLOUDY    16  14  92 SW5       29.43F
MINOT          CLOUDY    25  21  85 SW8       29.41F WCI  16
DICKINSON      CLOUDY    18  15  88 W7        29.40F WCI   9
BEACH            N/A     28  23  80 W8        29.46F WCI  20
CROSBY           N/A     19  19 100 SW13      29.42F WCI   7
TIOGA            N/A     18  18 100 CALM      29.43F
WATFORD CITY     N/A     19  18  93 SW3       29.43F
BISMARCK       CLOUDY    12   9  87 E6        29.48F WCI   3
GRAND FORKS    CLOUDY    35  32  88 S18       29.55F FOG     WCI  24
FARGO          CLOUDY    45  35  68 S14       29.58F HAZE
BUFFALO SD       N/A     30  19  63 W9        29.37F WCI  22
RAPID CITY     CLOUDY    28  19  69 W6        29.43F WCI  22
$$

REGIONAL REPORTS...WYOMING/IDAHO/WASHINGTON

CITY           SKY/WX    TMP DP  RH WIND       PRES   REMARKS
GILLETTE       CLOUDY    33  25  72 W13       29.48F WCI  24
SHERIDAN       CLEAR     28  21  75 SW6       29.50S WCI  22
BUFFALO WY     CLOUDY    35  20  54 W3        29.51S
CODY           CLOUDY    39  23  52 W8        29.53F
YELLOWSTONE LA   N/A     23  21  92 CALM      29.62F
IDAHO FALLS    CLOUDY    31  29  92 CALM      29.66F
SALMON         CLOUDY    27  27 100 CALM      29.62S
BOISE          CLOUDY    36  32  85 SE10      29.67F WCI  28
SPOKANE        PTCLDY    33  30  88 SE7       29.57S WCI  27
$$

REGIONAL REPORTS...ALBERTA

CITY           SKY/WX    TMP DP  RH WIND       PRES   REMARKS
EDMONTON       CLEAR     36  19  51 W10       29.22R WCI  28
CALGARY        MOCLDY    37  19  48 N9        29.31R WCI  31
LETHBRIDGE     MOCLDY    39  27  60 W22G31    29.38S WCI  29
MEDICINE HAT   MOCLDY    39  30  70 SW16G24   29.37S WCI  30
WATERTON GATE    N/A     37  18  44 W21G35      N/A  WCI  27
CARDSTON         N/A     37  21  52 NW6         N/A
MILK RIVER       N/A     36  27  69 SW7         N/A  WCI  30
$$

REGIONAL REPORTS...SASKATCHEWAN

CITY           SKY/WX    TMP DP  RH WIND       PRES   REMARKS
SWIFT CURRENT  CLOUDY    36  30  80 SW14      29.36S WCI  27
REGINA         MOCLDY    30  28  93 E5        29.38F
SASKATOON      PTCLDY    34  32  93 S6        29.30S WCI  29
ROCKGLEN         N/A     34  30  86 W10         N/A  WCI  26
ASSINIBOIA       N/A     21  21 100 SW5         N/A
$$




USA.gov is the U.S. government's official web portal to all federal, state and local government web resources and services.